Pearl, MS

9:14 AM CST on December 07, 2016 (GMT -0600)
Jackson-Evers International

Weather History for KJAN - March, 2012

Change the Weather History Date:

Friday, March 9, 2012

  Actual Average Record
Temperature  
Mean Temperature 53 °F 55 °F  
Max Temperature 60 °F 67 °F 90 °F (1911)
Min Temperature 46 °F 44 °F 16 °F (1996)
Degree Days  
Heating Degree Days 12 10  
Month to date heating degree days 58 102  
Since 1 July heating degree days 1627 2094  
Cooling Degree Days 0 1  
Month to date cooling degree days 19 6  
Year to date cooling degree days 43 16  
Growing Degree Days 2 (Base 50)    
Moisture  
Dew Point 46 °F    
Average Humidity 68    
Maximum Humidity 100    
Minimum Humidity 36    
Precipitation  
Precipitation 1.10 in 0.16 in 2.35 in (1913)
Month to date precipitation 2.98 1.48  
Year to date precipitation 15.28 11.21  
Sea Level Pressure  
Sea Level Pressure 30.29 in    
Wind  
Wind Speed 9 mph (NNE)    
Max Wind Speed 22 mph    
Max Gust Speed 28 mph    
Visibility 7 miles    
Events Rain , Thunderstorm    
T = Trace of Precipitation, MM = Missing Value Source: NWS Daily Summary

Daily Weather History Graph

Daily Weather History Graph

Search for Another Location

Airport or City:

Trip Planner

Search our weather history database for the weather conditions in past years. The results will help you decide how hot, cold, wet, or windy it might be!

Date:

Astronomy

Mar. 09, 2012 Rise Set
Actual Time 6:17 AM CST 6:04 PM CST
Civil Twilight 5:52 AM CST 6:28 PM CST
Nautical Twilight 5:24 AM CST 6:57 PM CST
Astronomical Twilight 4:56 AM CST 7:25 PM CST
Moon 7:53 PM CST (3/9) 6:44 AM CST (3/9)
Length of Visible Light 12h 35m
Length of Day
11h 46m
Full, 97% of the Moon is Illuminated
Mar 9
Full
Mar 14
Last Quarter
Mar 22
New
Mar 30
First Quarter
Apr 6
Full

Hourly Weather History & Observations

Time (CST) Temp. Windchill Dew Point Humidity Pressure Visibility Wind Dir Wind Speed Gust Speed Precip Events Conditions
12:12 AM 55.4 °F - 55.4 °F 100% 30.20 in 4.0 mi NNE 11.5 mph - 0.04 in Rain , Thunderstorm Thunderstorms and Rain
12:20 AM 55.4 °F - 53.6 °F 94% 30.20 in 3.0 mi NE 10.4 mph 19.6 mph 0.07 in Rain , Thunderstorm Thunderstorms and Rain
12:37 AM 55.4 °F - 53.6 °F 94% 30.20 in 3.0 mi NNE 6.9 mph - 0.13 in Rain , Thunderstorm Thunderstorms and Rain
12:47 AM 55.4 °F - 53.6 °F 94% 30.21 in 4.0 mi ENE 6.9 mph - 0.16 in Rain Rain
12:54 AM 55.9 °F - 54.0 °F 93% 30.21 in 3.0 mi North 4.6 mph - 0.19 in Rain , Thunderstorm Heavy Thunderstorms and Rain
1:34 AM 55.4 °F - 55.4 °F 100% 30.22 in 3.0 mi Calm Calm - 0.26 in Rain Heavy Rain
1:54 AM 55.9 °F - 55.0 °F 97% 30.21 in 3.0 mi NNE 6.9 mph - 0.39 in Rain Rain
2:01 AM 55.4 °F - 55.4 °F 100% 30.22 in 2.5 mi NNW 8.1 mph - 0.04 in Rain Rain
2:03 AM 55.4 °F - 55.4 °F 100% 30.23 in 3.0 mi NNW 6.9 mph - 0.05 in Rain Rain
2:46 AM 55.4 °F - 55.4 °F 100% 30.22 in 5.0 mi NE 6.9 mph - 0.14 in Rain Rain
2:54 AM 55.9 °F - 55.0 °F 97% 30.20 in 4.0 mi NE 8.1 mph - 0.15 in Rain Rain
3:54 AM 55.9 °F - 55.0 °F 97% 30.21 in 5.0 mi North 5.8 mph - 0.10 in Rain Light Rain
4:20 AM 55.4 °F - 55.4 °F 100% 30.23 in 6.0 mi North 8.1 mph - 0.03 in Rain Light Rain
4:54 AM 55.9 °F - 55.0 °F 97% 30.21 in 4.0 mi NE 5.8 mph - 0.08 in Rain Rain
5:44 AM 55.4 °F - 53.6 °F 94% 30.26 in 4.0 mi North 12.7 mph - 0.12 in Rain Rain
5:54 AM 54.0 °F - 53.1 °F 97% 30.24 in 4.0 mi NNE 9.2 mph - 0.14 in Rain Rain
6:54 AM 50.0 °F - 48.0 °F 93% 30.28 in 8.0 mi North 17.3 mph 27.6 mph 0.06 in Rain Light Rain
7:54 AM 48.9 °F - 46.9 °F 93% 30.31 in 10.0 mi North 19.6 mph - 0.00 in   Overcast
8:05 AM 46.4 °F 40.7 °F 44.6 °F 93% 30.31 in 10.0 mi North 12.7 mph - N/A   Overcast
8:17 AM 46.4 °F 39.5 °F 46.4 °F 100% 30.33 in 10.0 mi North 17.3 mph 21.9 mph N/A   Overcast
8:38 AM 46.4 °F 40.4 °F 44.6 °F 93% 30.34 in 10.0 mi NNE 13.8 mph 24.2 mph N/A   Overcast
8:54 AM 46.9 °F - 44.1 °F 90% 30.34 in 10.0 mi NE 12.7 mph - N/A   Overcast
9:13 AM 46.4 °F 39.8 °F 42.8 °F 87% 30.34 in 10.0 mi NNE 16.1 mph 21.9 mph N/A   Overcast
9:54 AM 48.0 °F - 43.0 °F 83% 30.35 in 10.0 mi NE 12.7 mph 21.9 mph N/A   Overcast
10:54 AM 51.1 °F - 44.1 °F 77% 30.35 in 10.0 mi NNE 13.8 mph - N/A   Mostly Cloudy
11:18 AM 51.8 °F - 44.6 °F 76% 30.36 in 10.0 mi NE 11.5 mph 19.6 mph N/A   Mostly Cloudy
11:54 AM 53.1 °F - 41.0 °F 64% 30.35 in 10.0 mi North 17.3 mph - N/A   Mostly Cloudy
12:54 PM 55.0 °F - 39.9 °F 57% 30.33 in 10.0 mi NNE 12.7 mph 19.6 mph N/A   Mostly Cloudy
1:54 PM 57.9 °F - 37.0 °F 46% 30.31 in 10.0 mi NE 12.7 mph 23.0 mph N/A   Mostly Cloudy
2:54 PM 57.0 °F - 33.1 °F 40% 30.32 in 10.0 mi NE 13.8 mph - N/A   Mostly Cloudy
3:54 PM 57.9 °F - 30.9 °F 36% 30.32 in 10.0 mi NE 10.4 mph - N/A   Partly Cloudy
4:54 PM 59.0 °F - 34.0 °F 39% 30.32 in 10.0 mi ENE 3.5 mph - N/A   Partly Cloudy
5:54 PM 53.1 °F - 42.1 °F 66% 30.33 in 10.0 mi ENE 4.6 mph - N/A   Partly Cloudy
6:54 PM 53.1 °F - 36.0 °F 52% 30.36 in 10.0 mi NE 5.8 mph - N/A   Clear
7:54 PM 51.8 °F - 35.6 °F 54% 30.36 in 10.0 mi NE 5.8 mph - N/A   Clear
8:54 PM 52.0 °F - 34.0 °F 50% 30.38 in 10.0 mi NE 4.6 mph - N/A   Clear
9:54 PM 48.9 °F - 37.0 °F 64% 30.39 in 10.0 mi North 4.6 mph - N/A   Clear
10:54 PM 51.1 °F - 35.1 °F 54% 30.37 in 10.0 mi NNE 8.1 mph - N/A   Clear
11:54 PM 50.0 °F - 35.1 °F 57% 30.35 in 10.0 mi NNE 5.8 mph - N/A   Clear